Weather History for Harlingen, TX

Change the Weather History Date:

Wednesday, December 5, 2012

  Actual Average Record
Temperature  
Mean Temperature 68 °F 62 °F  
Max Temperature 78 °F 73 °F 90 °F (1942)
Min Temperature 57 °F 52 °F 29 °F (2009)
Degree Days  
Heating Degree Days 0 5  
Month to date heating degree days 0 24  
Since 1 July heating degree days 12 81  
Cooling Degree Days 3 3  
Month to date cooling degree days 42 15  
Year to date cooling degree days 4752 3949  
Growing Degree Days 18 (Base 50)    
Moisture  
Dew Point 62 °F    
Average Humidity 68    
Maximum Humidity 93    
Minimum Humidity 42    
Precipitation  
Precipitation 0.39 in 0.05 in 1.20 in (1944)
Month to date precipitation 0.41 0.26  
Year to date precipitation 14.00 24.18  
Sea Level Pressure  
Sea Level Pressure 30.11 in    
Wind  
Wind Speed 8 mph (North)    
Max Wind Speed 21 mph    
Max Gust Speed 26 mph    
Visibility 9 miles    
Events Rain , Thunderstorm    
T = Trace of Precipitation, MM = Missing Value Source: NWS Daily Summary

Daily Weather History Graph

Daily Weather History Graph

Search for Another Location

Airport:

Trip Planner

Search our weather history database for the weather conditions in past years. The results will help you decide how hot, cold, wet, or windy it might be!

Date:

Astronomy

Dec. 05, 2012 Rise Set
Actual Time 7:04 AM CST 5:38 PM CST
Civil Twilight 6:39 AM CST 6:03 PM CST
Nautical Twilight 6:10 AM CST 6:32 PM CST
Astronomical Twilight 5:42 AM CST 7:00 PM CST
Moon No Moon Rise 11:54 AM CST (12/5)
Length of Visible Light 11h 24m
Length of Day
10h 34m
Waning Gibbous, 59% of the Moon is Illuminated
Dec 5
Waning Gibbous
Dec 6
Last Quarter
Dec 13
New
Dec 19
First Quarter
Dec 28
Full

Hourly Weather History & Observations

Time (CST) Temp. Dew Point Humidity Pressure Visibility Wind Dir Wind Speed Gust Speed Precip Events Conditions
12:15 AM 71.6 °F 69.8 °F 94% 30.10 in 10.0 mi South 4.6 mph - N/A Thunderstorm Mostly Cloudy
12:48 AM 69.8 °F 66.2 °F 88% 30.13 in 2.0 mi NW 19.6 mph 26.5 mph 0.21 in Rain , Thunderstorm Heavy Thunderstorms and Rain
12:52 AM 66.9 °F 64.0 °F 90% 30.11 in 0.8 mi Calm Calm - 0.37 in Rain , Thunderstorm Heavy Thunderstorms and Rain
12:57 AM 66.2 °F 64.4 °F 94% 30.10 in 1.0 mi ESE 5.8 mph - 0.02 in Rain , Thunderstorm Heavy Thunderstorms and Rain
1:03 AM 68.0 °F 62.6 °F 83% 30.10 in 6.0 mi SSE 3.5 mph - 0.02 in Rain , Thunderstorm Light Thunderstorms and Rain
1:43 AM 66.2 °F 62.6 °F 88% 30.11 in 10.0 mi West 5.8 mph - 0.02 in   Clear
1:52 AM 66.9 °F 63.0 °F 87% 30.10 in 10.0 mi NW 5.8 mph - 0.02 in   Clear
2:52 AM 69.1 °F 66.0 °F 90% 30.11 in 10.0 mi North 9.2 mph - N/A   Mostly Cloudy
3:12 AM 69.8 °F 66.2 °F 88% 30.11 in 10.0 mi North 10.4 mph - N/A   Overcast
3:37 AM 69.8 °F 66.2 °F 88% 30.11 in 10.0 mi North 9.2 mph - N/A   Overcast
3:52 AM 69.1 °F 66.0 °F 90% 30.11 in 10.0 mi NNE 12.7 mph - N/A   Overcast
4:03 AM 69.8 °F 66.2 °F 88% 30.12 in 10.0 mi NNE 11.5 mph - N/A   Overcast
4:14 AM 69.8 °F 66.2 °F 88% 30.12 in 10.0 mi North 9.2 mph - N/A   Overcast
4:52 AM 68.0 °F 66.0 °F 93% 30.12 in 10.0 mi North 9.2 mph - N/A   Overcast
5:09 AM 68.0 °F 66.2 °F 94% 30.12 in 10.0 mi North 10.4 mph - N/A   Overcast
5:52 AM 68.0 °F 66.0 °F 93% 30.13 in 9.0 mi NNW 10.4 mph - N/A   Overcast
6:31 AM 66.2 °F 64.4 °F 94% 30.15 in 8.0 mi NNW 10.4 mph - N/A   Overcast
6:52 AM 66.0 °F 64.0 °F 93% 30.16 in 8.0 mi NNW 12.7 mph - N/A   Overcast
8:52 AM 66.0 °F 61.0 °F 84% 30.19 in 10.0 mi NNW 15.0 mph - N/A   Clear
9:52 AM 66.9 °F 59.0 °F 76% 30.20 in 10.0 mi NNW 10.4 mph - N/A   Mostly Cloudy
10:21 AM 69.8 °F 60.8 °F 73% 30.19 in 10.0 mi North 10.4 mph - N/A   Clear
10:52 AM 71.1 °F 60.1 °F 68% 30.19 in 10.0 mi NNW 11.5 mph - N/A   Clear
11:52 AM 73.0 °F 60.1 °F 64% 30.16 in 10.0 mi NW 10.4 mph - N/A   Partly Cloudy
12:11 PM 71.6 °F 60.8 °F 69% 30.15 in 10.0 mi NW 11.5 mph - N/A   Mostly Cloudy
12:27 PM 73.4 °F 60.8 °F 65% 30.14 in 10.0 mi NW 11.5 mph - N/A   Scattered Clouds
12:52 PM 73.9 °F 60.1 °F 62% 30.12 in 10.0 mi NNW 10.4 mph - N/A   Scattered Clouds
1:52 PM 78.1 °F 60.1 °F 54% 30.08 in 10.0 mi NNW 11.5 mph - N/A   Clear
2:52 PM 78.1 °F 53.1 °F 42% 30.06 in 10.0 mi NNW 8.1 mph - N/A   Clear
3:52 PM 78.1 °F 53.1 °F 42% 30.05 in 10.0 mi NNW 6.9 mph - N/A   Clear
4:52 PM 75.9 °F 53.1 °F 45% 30.04 in 10.0 mi NNE 6.9 mph - N/A   Clear
5:52 PM 69.1 °F 59.0 °F 70% 30.04 in 10.0 mi ENE 9.2 mph - N/A   Clear
6:52 PM 64.9 °F 59.0 °F 81% 30.06 in 10.0 mi SE 3.5 mph - N/A   Clear
7:52 PM 63.0 °F 59.0 °F 87% 30.06 in 10.0 mi Calm Calm - N/A   Clear
8:52 PM 60.8 °F 57.2 °F 88% 30.06 in 10.0 mi ENE 6.9 mph - N/A   Clear
9:52 PM 59.0 °F 57.0 °F 93% 30.07 in 10.0 mi Calm Calm - N/A   Clear
10:52 PM 57.9 °F 55.9 °F 93% 30.05 in 7.0 mi SE 3.5 mph - N/A   Clear
11:44 PM 59.0 °F 57.2 °F 94% 30.04 in 2.5 mi Calm Calm - N/A   Clear
11:52 PM 57.9 °F 55.9 °F 93% 30.04 in 7.0 mi Calm Calm - N/A   Clear